UAL2302 KLAX-KDEN

Flight info

Callsign UAL2302
Flight time N/A
Altitude 35000
Route ORCKA5 LAS J146 DICEE BUMMP SSKII4
Aircraft A21N/M-SDE3FGHIRWY/LB1

Departure

Time 2026-04-23 03:43
Airport Los Angeles International Airport (KLAX)

Arrival

Time N/A
Airport Denver International Airport (KDEN)
Time Latitude Longitude Altitude Speed Heading
2026-04-23 03:14 33.94204 -118.39786 115 ft 0 kts 84°
2026-04-23 03:25 33.94204 -118.39788 115 ft 1 kts 84°
2026-04-23 03:26 33.94202 -118.39806 116 ft 2 kts 84°
2026-04-23 03:26 33.94201 -118.39824 116 ft 2 kts 106°
2026-04-23 03:26 33.94208 -118.39841 116 ft 2 kts 131°
2026-04-23 03:26 33.94220 -118.39851 116 ft 2 kts 158°
2026-04-23 03:27 33.94228 -118.39854 116 ft 1 kts 173°
2026-04-23 03:27 33.94234 -118.39855 116 ft 0 kts 173°
2026-04-23 03:32 33.94217 -118.39852 116 ft 4 kts 173°
2026-04-23 03:32 33.94130 -118.39838 116 ft 20 kts 172°
2026-04-23 03:33 33.93979 -118.39824 116 ft 20 kts 170°
2026-04-23 03:33 33.93909 -118.39718 114 ft 18 kts 83°
2026-04-23 03:33 33.93925 -118.39558 112 ft 19 kts 83°
2026-04-23 03:33 33.93941 -118.39393 110 ft 20 kts 83°
2026-04-23 03:34 33.93959 -118.39224 108 ft 20 kts 83°
2026-04-23 03:34 33.93977 -118.39053 107 ft 20 kts 83°
2026-04-23 03:34 33.93994 -118.38883 106 ft 21 kts 83°
2026-04-23 03:34 33.94013 -118.38697 105 ft 23 kts 83°
2026-04-23 03:35 33.94033 -118.38499 104 ft 24 kts 83°
2026-04-23 03:35 33.94053 -118.38303 103 ft 19 kts 84°
2026-04-23 03:35 33.94064 -118.38191 103 ft 10 kts 83°
2026-04-23 03:35 33.94074 -118.38103 103 ft 10 kts 83°
2026-04-23 03:36 33.94076 -118.38034 102 ft 0 kts 113°
2026-04-23 03:41 33.94072 -118.38026 102 ft 3 kts 124°
2026-04-23 03:41 33.94033 -118.38007 102 ft 8 kts 174°
2026-04-23 03:42 33.93985 -118.38032 103 ft 8 kts 253°
2026-04-23 03:42 33.93962 -118.38244 103 ft 58 kts 263°
2026-04-23 03:42 33.93884 -118.39008 107 ft 123 kts 263°
2026-04-23 03:42 33.93757 -118.40256 139 ft 173 kts 263°
2026-04-23 03:43 33.93605 -118.41727 687 ft 179 kts 263°
2026-04-23 03:43 33.93456 -118.43199 1438 ft 179 kts 264°
2026-04-23 03:43 33.93334 -118.44661 2132 ft 176 kts 266°
2026-04-23 03:43 33.93210 -118.46157 2513 ft 185 kts 263°
2026-04-23 03:44 33.92852 -118.47704 2796 ft 200 kts 250°
2026-04-23 03:44 33.92261 -118.49277 3086 ft 215 kts 248°
2026-04-23 03:44 33.91618 -118.50974 3373 ft 231 kts 247°
2026-04-23 03:44 33.90675 -118.52613 3651 ft 252 kts 222°
2026-04-23 03:45 33.89069 -118.53588 3997 ft 270 kts 192°
2026-04-23 03:45 33.87175 -118.53519 4584 ft 278 kts 164°
2026-04-23 03:45 33.85509 -118.52358 5238 ft 281 kts 133°
2026-04-23 03:45 33.84538 -118.50329 5864 ft 282 kts 102°
2026-04-23 03:46 33.84544 -118.48037 6458 ft 281 kts 71°
2026-04-23 03:46 33.85468 -118.45999 7075 ft 278 kts 48°
2026-04-23 03:46 33.86695 -118.44201 7676 ft 283 kts 47°
2026-04-23 03:46 33.87951 -118.42338 8271 ft 288 kts 47°
2026-04-23 03:47 33.89223 -118.40423 8879 ft 293 kts 47°
2026-04-23 03:47 33.90490 -118.38500 9472 ft 297 kts 47°
2026-04-23 03:47 33.91773 -118.36538 10049 ft 301 kts 46°
2026-04-23 03:47 33.93071 -118.34547 10467 ft 311 kts 46°
2026-04-23 03:48 33.94451 -118.32433 10737 ft 326 kts 47°
2026-04-23 03:48 33.95882 -118.30235 11063 ft 338 kts 47°
2026-04-23 03:48 33.97349 -118.27970 11563 ft 343 kts 47°